Location: Wildlife_Club
(35.6000°N, 81.4330°W)
Time: 19:32:30
(UTC-05:00)

Amateur Radio Satellites - All Passes

Search period start: 27 February 2015 19:02
Search period end: 28 February 2015 19:02
Location: Wildlife_Club, 35.6000°N, 81.4330°W

Satellite Date Start Highest point End Downlink Frequencies (MHz)
Time Altitude Azimuth
PHONESAT 2.4 27 Feb 19:29:22 19:32:55 54° 153° (SSE) 19:36:30 2401.200-2431.200
DOVE 4 27 Feb 19:32:36 19:35:29 16° 68° (ENE) 19:38:33 437.250
O/OREOS (USA 219) 27 Feb 19:36:08 19:40:03 27° 62° (ENE) 19:44:00 437.305
HO-68 27 Feb 19:38:36 19:45:02 39° 67° (ENE) 19:51:35 435.675
VERMONT LUNAR 27 Feb 19:50:19 19:53:48 62° 343° (NNW) 19:57:16 437.305
AIST 2 27 Feb 19:50:58 19:54:40 28° 307° (NW) 19:58:22 435.215
CUBESAT XI-V 27 Feb 19:52:17 19:56:18 27° 289° (WNW) 20:00:11 437.345
BRITE-PL 27 Feb 19:53:45 19:59:17 56° 75° (ENE) 20:04:44 437.365/2234.400
AIST 1 27 Feb 20:02:12 20:05:36 21° 271° (W) 20:08:51
COMPASS 1 27 Feb 20:03:11 20:06:29 24° 71° (ENE) 20:09:53 437.405
AAUSAT CUBESAT 2 27 Feb 20:03:38 20:06:41 21° 71° (ENE) 20:09:51 437.432
CINEMA 3 27 Feb 20:06:04 20:09:05 17° 69° (ENE) 20:12:13 145.822/145.860
STRAND 1 27 Feb 20:12:12 20:16:50 33° 290° (WNW) 20:21:22 437.568
GOMX 1 27 Feb 20:16:22 20:21:45 63° 76° (ENE) 20:27:00 467.674
CANX-2 27 Feb 20:22:10 20:26:21 68° 76° (ENE) 20:30:33 2200.000
SEEDS 27 Feb 20:24:34 20:28:38 54° 75° (ENE) 20:32:44 437.485
PCSat 27 Feb 20:40:25 20:44:56 28° 109° (ESE) 20:49:35 145.827
CUTE 1.7 + AOD 2 27 Feb 20:41:16 20:45:28 77° 257° (WSW) 20:49:42 437.475
CUBEBUG 2 27 Feb 20:48:53 20:52:37 26° 72° (ENE) 20:56:22 437.445
Oscar 11 27 Feb 21:05:18 21:09:29 53° 75° (ENE) 21:13:42 145.826/435.025
DOVE 4 27 Feb 21:07:43 21:12:53 57° 260° (W) 21:17:53 437.250
PHONESAT 2.4 27 Feb 21:07:57 21:11:28 45° 348° (NNW) 21:14:59 2401.200-2431.200
AISAT 27 Feb 21:13:40 21:15:38 13° 67° (ENE) 21:17:49 437.250
O/OREOS (USA 219) 27 Feb 21:15:39 21:19:23 24° 257° (WSW) 21:23:00 437.305
DX 1 27 Feb 21:23:40 21:27:48 42° 73° (ENE) 21:31:59 434.975-435.025
VELOX 1 27 Feb 21:24:01 21:26:45 17° 68° (ENE) 21:29:39 145.980
HO-68 27 Feb 21:26:19 21:32:48 35° 263° (W) 21:39:11 435.675
VERMONT LUNAR 27 Feb 21:28:49 21:32:04 34° 359° (N) 21:35:18 437.305
DELFI C3 27 Feb 21:30:31 21:34:32 85° 78° (ENE) 21:38:36 145.870
BRITE-PL 27 Feb 21:34:15 21:38:07 18° 269° (W) 21:41:41 437.365/2234.400
AAUSAT CUBESAT 2 27 Feb 21:38:43 21:42:14 26° 265° (W) 21:45:41 437.432
COMPASS 1 27 Feb 21:38:49 21:42:10 23° 266° (W) 21:45:24 437.405
CINEMA 3 27 Feb 21:41:20 21:46:02 44° 261° (W) 21:50:33 145.822/145.860
ZACube-1 27 Feb 21:42:42 21:47:08 72° 77° (ENE) 21:51:28 437.345
FUNcube-1 27 Feb 21:42:43 21:47:08 70° 77° (ENE) 21:51:28 145.935
GONETS M04 27 Feb 21:43:23 21:51:08 40° 88° (E) 21:59:03
UWE-3 27 Feb 21:54:11 21:58:41 68° 259° (W) 22:03:06 435.000/436.395/437.385
GOMX 1 27 Feb 21:57:14 22:00:17 14° 270° (W) 22:02:59 467.674
UKube-1 27 Feb 21:57:19 22:01:40 80° 257° (WSW) 22:06:03 .
TIGRISAT 27 Feb 22:12:04 22:14:58 18° 93° (E) 22:18:02 435.000
HUMSAT D 27 Feb 22:12:38 22:16:52 81° 77° (ENE) 22:21:04 437.325/437.525
ANTELSAT 27 Feb 22:23:14 22:26:47 26° 96° (E) 22:30:26 437.575/2403.000
PCSat 27 Feb 22:23:20 22:28:16 34° 304° (NW) 22:33:10 145.827
CUBEBUG 2 27 Feb 22:25:26 22:29:17 25° 265° (W) 22:32:58 437.445
50 SAT 27 Feb 22:44:38 22:48:35 56° 260° (W) 22:52:30 437.505
Oscar 11 27 Feb 22:44:58 22:46:05 11° 271° (W) 22:46:54 145.826/435.025
QB50P1 27 Feb 22:45:12 22:48:37 24° 95° (E) 22:52:07 145.935-145.965
PHONESAT 2.4 27 Feb 22:46:56 22:50:21 38° 6° (N) 22:53:46 2401.200-2431.200
AISAT 27 Feb 22:47:27 22:51:51 53° 260° (W) 22:56:16 437.250
QB50P2 27 Feb 22:47:43 22:51:17 27° 96° (E) 22:54:54 145.880/145.840
VELOX 1 27 Feb 22:58:49 23:03:03 40° 262° (W) 23:07:17 145.980
ESTCUBE 1 27 Feb 23:01:27 23:05:58 86° 260° (W) 23:10:31 437.505/2401.250
DX 1 27 Feb 23:01:50 23:04:19 14° 268° (W) 23:06:35 434.975-435.025
CUBEBUG 1 27 Feb 23:02:28 23:06:55 89° 78° (ENE) 23:11:23 437.445
DUCHIFAT 1 27 Feb 23:05:29 23:09:29 42° 99° (E) 23:13:29 145.980
VERMONT LUNAR 27 Feb 23:06:55 23:10:21 56° 16° (NNE) 23:13:46 437.305
BUGSAT 1 27 Feb 23:12:45 23:16:38 37° 98° (E) 23:20:28 437.445
UNISAT 6 27 Feb 23:20:54 23:25:08 63° 285° (WNW) 23:29:25 437.425
POLYITAN 1 27 Feb 23:21:36 23:25:50 71° 102° (ESE) 23:30:01 437.675
POPSAT HIP 1 27 Feb 23:23:51 23:28:05 74° 101° (ESE) 23:32:16 437.405
RS-15 27 Feb 23:27:39 23:38:07 57° 112° (ESE) 23:48:45 29.354- 29.394
CUSAT 1 27 Feb 23:29:05 23:34:04 22° 94° (E) 23:38:29 437.405
GONETS M04 27 Feb 23:39:57 23:48:00 39° 286° (WNW) 23:55:55
SPROUT 27 Feb 23:47:48 23:52:06 68° 76° (ENE) 23:56:26 437.525
TIGRISAT 27 Feb 23:48:02 23:51:50 31° 288° (WNW) 23:55:36 435.000
NANOSAT C BR1 27 Feb 23:48:26 23:52:35 54° 285° (WNW) 23:56:41 145.865
SWISSCUBE 27 Feb 23:50:15 23:51:08 11° 65° (ENE) 23:52:19 437.505
BEESAT 27 Feb 23:58:34 00:00:20 12° 65° (ENE) 00:02:23 436.000
ANTELSAT 28 Feb 00:00:07 00:03:31 23° 289° (WNW) 00:06:50 437.575/2403.000
TISAT 1 28 Feb 00:03:28 00:07:46 85° 258° (WSW) 00:12:04 437.305
DANDE 28 Feb 00:20:40 00:28:01 54° 97° (E) 00:33:48 436.750
QB50P1 28 Feb 00:21:03 00:24:27 23° 289° (WNW) 00:27:43 145.935-145.965
ITUPSAT 1 28 Feb 00:21:53 00:25:26 22° 69° (ENE) 00:29:08 437.325
QB50P2 28 Feb 00:23:50 00:27:05 21° 290° (WNW) 00:30:14 145.880/145.840
PHONESAT 2.4 28 Feb 00:25:25 00:29:04 89° 20° (NNE) 00:32:40 2401.200-2431.200
DUCHIFAT 1 28 Feb 00:42:44 00:45:01 14° 292° (WNW) 00:47:06 145.980
VERMONT LUNAR 28 Feb 00:45:03 00:48:12 32° 211° (SSW) 00:51:19 437.305
BUGSAT 1 28 Feb 00:49:21 00:51:50 15° 292° (WNW) 00:54:08 437.445
CUSAT 1 28 Feb 01:10:09 01:16:57 48° 280° (W) 01:22:11 437.405
SO-50 28 Feb 01:19:08 01:21:23 14° 109° (ESE) 01:23:55 436.795
SWISSCUBE 28 Feb 01:23:42 01:28:27 74° 258° (WSW) 01:33:16 437.505
BEESAT 28 Feb 01:33:00 01:37:44 63° 259° (W) 01:42:29 436.000
ITAMSAT 1 28 Feb 01:38:33 01:41:29 16° 91° (E) 01:44:41 435.822/435.867
RS-15 28 Feb 01:40:51 01:50:57 40° 314° (NW) 02:01:02 29.354- 29.394
Oscar 19 28 Feb 01:45:40 01:50:45 62° 101° (E) 01:55:49 437.125/150
ITUPSAT 1 28 Feb 01:58:49 02:03:10 34° 263° (W) 02:07:30 437.325
PHONESAT 2.4 28 Feb 02:04:41 02:07:14 18° 216° (SW) 02:09:42 2401.200-2431.200
DANDE 28 Feb 02:05:52 02:11:26 22° 285° (WNW) 02:15:54 436.750
Gurwin Techsat 1B 28 Feb 02:30:13 02:35:10 39° 98° (E) 02:40:08 435.225
BEESAT 3 28 Feb 02:35:20 02:38:30 21° 51° (NE) 02:41:43 437.485
KKS-1 28 Feb 02:35:35 02:40:03 71° 258° (WSW) 02:44:32 437.445
AO-7 28 Feb 02:48:28 02:49:08 10° 86° (E) 02:50:42 29.400- 29.500
STARS 28 Feb 02:49:14 02:53:41 78° 258° (WSW) 02:58:08 437.465
HORYU 2 28 Feb 02:56:50 02:59:31 16° 92° (E) 03:02:25 437.375
BEESAT 2 28 Feb 02:56:58 03:00:39 30° 54° (NE) 03:04:19 435.950
SO-50 28 Feb 02:57:01 03:01:30 53° 303° (WNW) 03:06:08 436.795
ITAMSAT 1 28 Feb 03:16:18 03:21:23 53° 287° (WNW) 03:26:26 435.822/435.867
JUGNU 28 Feb 03:22:51 03:25:32 13° 169° (S) 03:28:19 437.505
MOZHAYETS 4 28 Feb 03:26:22 03:29:09 17° 68° (ENE) 03:32:06
Oscar 19 28 Feb 03:26:54 03:29:39 14° 295° (WNW) 03:32:09 437.125/150
YUBILEINY 28 Feb 03:44:30 03:53:16 63° 80° (E) 04:02:00 435.215
RS-15 28 Feb 04:02:25 04:07:51 14° 346° (NNW) 04:13:04 29.354- 29.394
Gurwin Techsat 1B 28 Feb 04:10:47 04:14:57 23° 292° (WNW) 04:18:57 435.225
BEESAT 3 28 Feb 04:13:01 04:16:39 30° 247° (WSW) 04:20:12 437.485
AIST 2 28 Feb 04:14:53 04:19:10 80° 58° (ENE) 04:23:21 435.215
M-CUBED/EXP-1 PRIME 28 Feb 04:16:41 04:19:46 37° 256° (WSW) 04:22:54 437.505
JAS-2 28 Feb 04:19:09 04:26:13 45° 98° (E) 04:33:40 435.910
AUBIESAT-1 28 Feb 04:21:16 04:24:21 37° 257° (WSW) 04:27:29 437.475
HORYU 2 28 Feb 04:32:15 04:36:24 38° 287° (WNW) 04:40:30 437.375
AO-7 28 Feb 04:35:13 04:43:31 73° 105° (ESE) 04:51:47 29.400- 29.500
BEESAT 2 28 Feb 04:35:33 04:38:40 20° 249° (WSW) 04:41:39 435.950
MOZHAYETS 4 28 Feb 05:01:48 05:06:06 41° 262° (W) 05:10:25
SRMSAT 28 Feb 05:06:47 05:09:42 14° 170° (S) 05:12:40 437.500
JUGNU 28 Feb 05:10:04 05:13:50 17° 179° (S) 05:17:37 437.505
CUBESAT XI-V 28 Feb 05:16:17 05:19:27 19° 69° (ENE) 05:22:48 437.345
PCSat 28 Feb 05:32:00 05:34:47 14° 46° (NE) 05:37:48 145.827
PRISM 28 Feb 05:39:35 05:43:19 34° 72° (ENE) 05:47:07 437.425
YUBILEINY 28 Feb 05:42:41 05:49:30 24° 276° (W) 05:55:55 435.215
STRAND 1 28 Feb 05:46:33 05:50:46 27° 69° (ENE) 05:55:07 437.568
JAS-2 28 Feb 06:04:30 06:11:04 35° 291° (WNW) 06:17:52 435.910
Cubesat XI-IV 28 Feb 06:19:51 06:24:58 45° 99° (E) 06:30:06 437.490
RS-15 28 Feb 06:20:13 06:26:51 17° 23° (NNE) 06:34:03 29.354- 29.394
AO-7 28 Feb 06:29:23 06:35:39 24° 301° (WNW) 06:41:37 29.400- 29.500
CUTE-I 28 Feb 06:29:38 06:34:54 55° 100° (E) 06:40:09 437.470
AIST 1 28 Feb 06:51:38 06:54:29 18° 89° (E) 06:57:32
CUBESAT XI-V 28 Feb 06:52:18 06:56:39 38° 263° (W) 07:01:01 437.345
SRMSAT 28 Feb 06:54:23 06:58:09 17° 180° (S) 07:01:56 437.500
JUGNU 28 Feb 06:59:04 07:02:09 14° 189° (S) 07:05:09 437.505
PCSat 28 Feb 07:13:31 07:18:58 81° 243° (WSW) 07:24:22 145.827
PRISM 28 Feb 07:16:24 07:18:59 16° 267° (W) 07:21:24 437.425
STRAND 1 28 Feb 07:25:20 07:29:54 31° 264° (W) 07:34:24 437.568
GONETS M04 28 Feb 07:58:36 08:03:14 16° 63° (ENE) 08:08:27
Cubesat XI-IV 28 Feb 08:00:48 08:04:48 21° 293° (WNW) 08:08:36 437.490
BRITE-PL 28 Feb 08:03:43 08:06:50 19° 91° (E) 08:09:57 437.365/2234.400
CUTE-I 28 Feb 08:11:06 08:14:35 17° 294° (WNW) 08:17:50 437.470
CANX-2 28 Feb 08:12:00 08:14:19 15° 91° (E) 08:16:50 2200.000
SEEDS 28 Feb 08:14:22 08:15:36 11° 90° (E) 08:17:05 437.485
GOMX 1 28 Feb 08:23:09 08:26:15 19° 92° (E) 08:29:21 467.674
AIST 1 28 Feb 08:28:07 08:31:58 30° 283° (WNW) 08:35:48
CUTE 1.7 + AOD 2 28 Feb 08:30:15 08:33:32 22° 94° (E) 08:36:55 437.475
RS-15 28 Feb 08:31:52 08:42:56 53° 52° (NE) 08:54:33 29.354- 29.394
ISS 28 Feb 08:36:38 08:37:29 11° 128° (SE) 08:38:28 145.825
SRMSAT 28 Feb 08:43:43 08:46:37 14° 190° (S) 08:49:26 437.500
HO-68 28 Feb 08:56:18 09:03:18 53° 101° (E) 09:10:18 435.675
Oscar 11 28 Feb 08:57:40 08:59:18 12° 90° (E) 09:01:11 145.826/435.025
TIGRISAT 28 Feb 09:09:35 09:11:23 13° 68° (ENE) 09:13:25 435.000
DOVE 4 28 Feb 09:10:42 09:14:49 46° 98° (E) 09:18:50 437.250
DELFI C3 28 Feb 09:14:54 09:17:08 15° 92° (E) 09:19:34 145.870
ANTELSAT 28 Feb 09:20:27 09:23:18 18° 69° (ENE) 09:26:17 437.575/2403.000
AAUSAT CUBESAT 2 28 Feb 09:24:07 09:28:15 58° 100° (E) 09:32:24 437.432
COMPASS 1 28 Feb 09:24:24 09:28:36 70° 101° (E) 09:32:47 437.405
FUNcube-1 28 Feb 09:35:41 09:38:04 15° 92° (E) 09:40:39 145.935
ZACube-1 28 Feb 09:35:49 09:38:17 16° 92° (E) 09:40:56 437.345
QB50P1 28 Feb 09:36:36 09:38:43 14° 68° (ENE) 09:41:03 145.935-145.965
QB50P2 28 Feb 09:39:07 09:41:31 15° 68° (ENE) 09:44:07 145.880/145.840
CINEMA 3 28 Feb 09:39:33 09:43:38 52° 99° (E) 09:47:41 145.822/145.860
BRITE-PL 28 Feb 09:41:27 09:45:33 32° 289° (WNW) 09:49:21 437.365/2234.400
O/OREOS (USA 219) 28 Feb 09:44:49 09:49:14 55° 107° (ESE) 09:53:44 437.305
CANX-2 28 Feb 09:46:31 09:50:28 38° 287° (WNW) 09:54:24 2200.000
SEEDS 28 Feb 09:47:41 09:51:46 48° 285° (WNW) 09:55:50 437.485
UWE-3 28 Feb 09:47:44 09:51:16 27° 96° (E) 09:54:52 435.000/436.395/437.385
UKube-1 28 Feb 09:48:50 09:52:06 21° 94° (E) 09:55:28 .
GONETS M04 28 Feb 09:52:44 10:01:31 89° 80° (E) 10:10:20
DUCHIFAT 1 28 Feb 09:55:45 09:59:03 23° 71° (ENE) 10:02:28 145.980
GOMX 1 28 Feb 10:00:40 10:04:31 29° 289° (WNW) 10:08:07 467.674
BUGSAT 1 28 Feb 10:00:44 10:03:45 20° 70° (ENE) 10:06:54 437.445
HUMSAT D 28 Feb 10:01:17 10:03:44 16° 92° (E) 10:06:21 437.325/437.525
CUTE 1.7 + AOD 2 28 Feb 10:05:54 10:09:27 25° 288° (WNW) 10:12:55 437.475
ISS 28 Feb 10:10:26 10:13:35 55° 321° (NW) 10:16:46 145.825
POLYITAN 1 28 Feb 10:11:58 10:15:55 36° 73° (ENE) 10:19:52 437.675
POPSAT HIP 1 28 Feb 10:13:55 10:17:52 37° 73° (ENE) 10:21:51 437.405
UNISAT 6 28 Feb 10:16:49 10:21:17 79° 77° (ENE) 10:25:40 437.425
CUBEBUG 2 28 Feb 10:18:51 10:23:01 85° 102° (ESE) 10:27:11 437.445
50 SAT 28 Feb 10:26:51 10:29:53 21° 95° (E) 10:33:00 437.505
Oscar 11 28 Feb 10:31:39 10:35:49 47° 285° (WNW) 10:39:58 145.826/435.025
NANOSAT C BR1 28 Feb 10:37:51 10:42:07 74° 76° (ENE) 10:46:24 145.865
AISAT 28 Feb 10:41:36 10:45:41 36° 97° (E) 10:49:46 437.250
TIGRISAT 28 Feb 10:43:26 10:47:48 51° 260° (W) 10:52:05 435.000
RS-15 28 Feb 10:44:35 10:55:18 44° 250° (WSW) 11:06:11 29.354- 29.394
HO-68 28 Feb 10:44:48 10:50:41 27° 296° (WNW) 10:56:21 435.675
DELFI C3 28 Feb 10:48:46 10:52:31 35° 287° (WNW) 10:56:14 145.870
DOVE 4 28 Feb 10:50:22 10:52:13 12° 293° (WNW) 10:53:50 437.250
DX 1 28 Feb 10:50:56 10:55:17 65° 285° (WNW) 10:59:35 434.975-435.025
VELOX 1 28 Feb 10:52:20 10:56:38 46° 99° (E) 11:00:54 145.980
CUBEBUG 1 28 Feb 10:55:26 10:58:41 21° 94° (E) 11:02:02 437.445
ANTELSAT 28 Feb 10:55:45 10:59:54 36° 262° (W) 11:03:56 437.575/2403.000
ESTCUBE 1 28 Feb 10:57:51 11:01:34 25° 95° (E) 11:05:21 437.505/2401.250
AAUSAT CUBESAT 2 28 Feb 11:02:54 11:03:29 10° 293° (WNW) 11:03:47 437.432
DANDE 28 Feb 11:09:30 11:10:26 11° 71° (ENE) 11:11:28 436.750
QB50P1 28 Feb 11:10:10 11:14:17 44° 262° (W) 11:18:23 145.935-145.965
FUNcube-1 28 Feb 11:10:49 11:14:36 34° 287° (WNW) 11:18:20 145.935
ZACube-1 28 Feb 11:11:04 11:14:49 33° 287° (WNW) 11:18:32 437.345
QB50P2 28 Feb 11:13:06 11:17:09 40° 262° (W) 11:21:12 145.880/145.840
CINEMA 3 28 Feb 11:19:18 11:20:27 11° 293° (WNW) 11:21:22 145.822/145.860
UKube-1 28 Feb 11:24:31 11:28:17 28° 289° (WNW) 11:31:57 .
UWE-3 28 Feb 11:24:39 11:27:42 19° 290° (WNW) 11:30:38 435.000/436.395/437.385
O/OREOS (USA 219) 28 Feb 11:26:44 11:29:06 13° 304° (NW) 11:31:16 437.305
SO-50 28 Feb 11:31:07 11:36:02 61° 58° (ENE) 11:40:53 436.795
DUCHIFAT 1 28 Feb 11:31:11 11:34:49 26° 265° (W) 11:38:23 145.980
BUGSAT 1 28 Feb 11:35:16 11:39:04 30° 263° (W) 11:42:50 437.445
HUMSAT D 28 Feb 11:35:57 11:39:39 33° 287° (WNW) 11:43:20 437.325/437.525
SPROUT 28 Feb 11:39:08 11:41:28 15° 91° (E) 11:43:59 437.525
POLYITAN 1 28 Feb 11:49:14 11:52:00 16° 268° (W) 11:54:36 437.675
POPSAT HIP 1 28 Feb 11:51:16 11:53:57 16° 268° (W) 11:56:27 437.405
TISAT 1 28 Feb 11:52:21 11:55:16 19° 93° (E) 11:58:19 437.305
GONETS M04 28 Feb 11:52:34 11:57:22 15° 279° (W) 12:01:32
CUSAT 1 28 Feb 11:53:44 11:56:20 64° 261° (W) 11:58:57 437.405
50 SAT 28 Feb 12:01:43 12:04:51 22° 289° (WNW) 12:07:54 437.505
AISAT 28 Feb 12:19:00 12:22:04 18° 292° (WNW) 12:24:59 437.250
VELOX 1 28 Feb 12:30:24 12:32:51 14° 293° (WNW) 12:35:07 145.980
CUBEBUG 1 28 Feb 12:31:15 12:35:07 29° 289° (WNW) 12:38:53 437.445
ESTCUBE 1 28 Feb 12:34:35 12:38:25 26° 289° (WNW) 12:42:09 437.505/2401.250
ITAMSAT 1 28 Feb 12:53:43 12:57:12 19° 67° (ENE) 13:00:53 435.822/435.867
Oscar 19 28 Feb 12:59:31 13:04:36 66° 75° (ENE) 13:09:43 437.125/150
SO-50 28 Feb 13:13:35 13:16:09 14° 251° (WSW) 13:18:26 436.795
SPROUT 28 Feb 13:13:46 13:17:47 39° 287° (WNW) 13:21:45 437.525
SWISSCUBE 28 Feb 13:27:22 13:31:47 36° 97° (E) 13:36:13 437.505
TISAT 1 28 Feb 13:27:27 13:31:10 30° 288° (WNW) 13:34:47 437.305
BEESAT 28 Feb 13:36:25 13:40:57 41° 98° (E) 13:45:29 436.000
AO-7 28 Feb 13:43:18 13:47:11 15° 54° (NE) 13:51:35 29.400- 29.500
Gurwin Techsat 1B 28 Feb 13:48:20 13:53:22 47° 73° (ENE) 13:58:28 435.225
HORYU 2 28 Feb 13:54:20 13:55:31 11° 66° (ENE) 13:56:59 437.375
ITUPSAT 1 28 Feb 14:01:54 14:06:44 78° 102° (ESE) 14:11:33 437.325
KKS-1 28 Feb 14:30:17 14:34:02 27° 96° (E) 14:37:52 437.445
ITAMSAT 1 28 Feb 14:31:22 14:36:23 47° 261° (W) 14:41:25 435.822/435.867
Oscar 19 28 Feb 14:42:25 14:44:31 12° 271° (W) 14:46:15 437.125/150
STARS 28 Feb 14:42:49 14:46:20 24° 95° (E) 14:49:54 437.465
YUBILEINY 28 Feb 14:51:41 14:54:13 12° 79° (E) 14:57:34 435.215
SWISSCUBE 28 Feb 15:05:49 15:09:26 21° 292° (WNW) 15:12:55 437.505
BEESAT 28 Feb 15:15:11 15:18:31 18° 292° (WNW) 15:21:41 436.000
HORYU 2 28 Feb 15:27:22 15:31:45 60° 259° (W) 15:36:08 437.375
Gurwin Techsat 1B 28 Feb 15:29:55 15:33:39 19° 268° (W) 15:37:11 435.225
AO-7 28 Feb 15:30:31 15:38:49 75° 71° (ENE) 15:47:10 29.400- 29.500
ITUPSAT 1 28 Feb 15:43:21 15:44:04 10° 296° (WNW) 15:44:27 437.325
M-CUBED/EXP-1 PRIME 28 Feb 16:00:42 16:03:36 18° 99° (E) 16:06:47 437.505
AUBIESAT-1 28 Feb 16:04:51 16:07:44 18° 99° (E) 16:10:54 437.475
KKS-1 28 Feb 16:07:04 16:10:35 23° 290° (WNW) 16:14:00 437.445
JAS-2 28 Feb 16:13:36 16:18:55 86° 78° (ENE) 16:24:50 435.910
STARS 28 Feb 16:19:07 16:22:46 25° 289° (WNW) 16:26:19 437.465
ISS 28 Feb 16:40:24 16:43:30 40° 37° (NE) 16:46:35 145.825
YUBILEINY 28 Feb 16:41:10 16:49:51 79° 95° (E) 16:58:39 435.215
BEESAT 2 28 Feb 16:51:13 16:52:28 11° 109° (ESE) 16:53:57 435.950
MOZHAYETS 4 28 Feb 16:59:35 17:04:10 57° 100° (E) 17:08:44
AO-7 28 Feb 17:26:28 17:32:28 20° 268° (W) 17:38:01 29.400- 29.500
VERMONT LUNAR 28 Feb 17:28:13 17:30:54 21° 146° (SE) 17:33:37 437.305
M-CUBED/EXP-1 PRIME 28 Feb 17:34:41 17:38:35 37° 291° (WNW) 17:42:43 437.505
AUBIESAT-1 28 Feb 17:38:45 17:42:40 37° 291° (WNW) 17:46:49 437.475
Cubesat XI-IV 28 Feb 17:38:53 17:44:05 55° 74° (ENE) 17:49:22 437.490
CUTE-I 28 Feb 17:48:30 17:53:47 68° 75° (ENE) 17:59:09 437.470
STRAND 1 28 Feb 18:02:28 18:03:30 11° 89° (E) 18:04:54 437.568
BEESAT 3 28 Feb 18:03:19 18:07:23 81° 299° (WNW) 18:11:32 437.485
AIST 2 28 Feb 18:10:24 18:14:13 35° 114° (ESE) 18:18:09 435.215
ISS 28 Feb 18:17:41 18:19:42 15° 231° (SW) 18:21:38 145.825
BEESAT 2 28 Feb 18:26:14 18:30:14 52° 302° (WNW) 18:34:18 435.950
AIST 1 28 Feb 18:37:53 18:42:08 46° 80° (E) 18:46:23
MOZHAYETS 4 28 Feb 18:38:51 18:40:58 13° 293° (WNW) 18:42:51
YUBILEINY 28 Feb 18:41:47 18:47:52 19° 295° (WNW) 18:53:27 435.215
CUBESAT XI-V 28 Feb 18:51:41 18:56:24 67° 100° (E) 19:01:04 437.345
PHONESAT 2.4 28 Feb 18:52:01 18:55:30 45° 151° (SSE) 18:59:00 2401.200-2431.200
